Hourly Data Report for October 13, 2016

All times are specified in Local Standard Time (LST). Add 1 hour to adjust for Daylight Saving Time where and when it is observed.

PETAWAWA AWOS 2
ONTARIO

45°57'00.000" N
77°19'00.000" W
130.10 m
6106396
71625
YWA

Download Data

Hourly Data (October 2016)
Hourly Data Report for October 13, 2016
Temp Definition
°C
Dew Point Temp Definition
°C
Rel Hum Definition
%
Wind Dir Definition
10's deg

Wind Spd Definition
km/h
Visibility Definition
km
Stn Press Definition
kPa
Hmdx Definition


Wind Chill Definition


Weather Definition


TIME
00:00 16.3 11.9 75 12 19 14.5 99.36     LegendNANA
01:00 16.3 12.3 77 14 13 14.5 99.29     LegendNANA
02:00 17.6 11.4 67 18 19 14.5 99.17     LegendNANA
03:00 18.3 11.2 63 19 19 14.5 99.12     LegendNANA
04:00 16.8 12.3 75 20 13 14.5 99.13     Rain
05:00 14.9 13.6 92 18 11 14.5 99.14     Rain
06:00 9.9 8.9 94 30 24 14.5 99.40     Drizzle
07:00 7.6 6.5 93 32 30 11.3 99.60     Drizzle
08:00 7.2 5.1 86 32 30 14.5 99.74     Drizzle
09:00 6.9 3.7 80 32 28 14.5 99.91     Drizzle
10:00 7.0 3.1 76 32 20 14.5 100.03     Drizzle
11:00 7.6 2.7 71 32 24 14.5 100.13     LegendNANA
12:00 8.5 2.5 66 32 24 14.5 100.23     Drizzle
13:00 9.1 1.1 57 34 28 14.5 100.32     LegendNANA
14:00 9.5 2.0 59 31 15 14.5 100.37     LegendNANA
15:00 8.7 0.8 58 32 20 14.5 100.46     LegendNANA
16:00 8.4 1.1 60 30 17 14.5 100.55     LegendNANA
17:00 7.4 0.9 63 31 9 14.5 100.63     LegendNANA
18:00 6.6 0.6 66 28 7 14.5 100.71     LegendNANA
19:00 6.7 0.5 65 29 7 14.5 100.81     LegendNANA
20:00 5.4 -0.1 68 28 6 14.5 100.86     LegendNANA
21:00 4.2 0.3 76 29 4 14.5 100.92     LegendNANA
22:00 2.8 0.3 84 22 6 14.5 100.97     LegendNANA
23:00 1.6 0.5 92 23 4 14.5 100.97     LegendNANA

Notes on Data Quality.

Legend

  • E = Estimated
  • M = Missing
  • NA = Not Available
  • ‡ = Partner data that is not subject to review by the National Climate Archives
Date modified: